This demonstration page uses our WeatherBlox Daily Observations layout. Learn more.

Left ArrowRight Arrow

Hourly Observations for January 13, 2017

Temp ( °F °C ) Dew Point ( °F °C ) Humidity (%) Winds ( mph kmh ) Pressure ( in mb ) Visibility ( mi km ) Precip ( " mm )
12:58 am 00:58 Clear 18 -7.6 9 -12.8 67 67 NNE 8 13 30.64 1038 10 16 0.00 0.00
1:58 am 01:58 Mostly Cloudy 17 -8.1 8 -13.4 66 66 NNE 8 13 30.67 1039 10 16 0.00 0.00
2:58 am 02:58 Partly Cloudy 17 -8.4 6 -14.4 62 62 NNE 8 13 30.68 1039 10 16 0.00 0.00
3:58 am 03:58 Cloudy 17 -8.6 7 -13.9 66 66 NE 12 19 30.69 1039 10 16 0.00 0.00
4:58 am 04:58 Clear 16 -9 8 -13.6 70 70 NE 9 15 30.69 1039 10 16 0.00 0.00
5:58 am 05:58 Cloudy 15 -9.2 7 -13.7 70 70 NE 8 13 30.71 1040 10 16 0.00 0.00
6:58 am 06:58 Partly Cloudy 14 -9.9 2 -16.8 57 57 NE 9 15 30.74 1041 10 16 0.00 0.00
7:58 am 07:58 Sunny 14 -10.2 0 -17.8 54 54 NNE 9 15 30.74 1041 10 16 0.00 0.00
8:58 am 08:58 Sunny 14 -10.1 1 -17.1 57 57 NE 10 17 30.76 1042 10 16 0.00 0.00
9:58 am 09:58 Mostly Sunny 15 -9.5 0 -17.6 52 52 ENE 8 13 30.76 1042 10 16 0.00 0.00
10:58 am 10:58 Sunny 16 -8.7 1 -17 51 51 NE 7 11 30.77 1042 10 16 0.00 0.00
11:58 am 11:58 Sunny 18 -7.6 2 -16.9 48 48 NNE 6 9 30.74 1041 10 16 0.00 0.00
12:58 pm 12:58 Sunny 22 -5.5 1 -17.3 39 39 NE 7 11 30.70 1040 10 16 0.00 0.00
1:58 pm 13:58 Sunny 25 -3.8 0 -17.6 34 34 NE 8 13 30.66 1038 10 16 0.00 0.00
2:58 pm 14:58 Sunny 26 -3.1 0 -18 31 31 E 7 11 30.64 1038 10 16 0.00 0.00
3:58 pm 15:58 Mostly Cloudy 26 -3.5 -1 -18.1 32 32 ENE 6 9 30.63 1037 10 16 0.00 0.00
4:58 pm 16:58 Cloudy 26 -3.5 0 -17.6 33 33 E 6 9 30.63 1037 10 16 0.00 0.00
5:58 pm 17:58 Cloudy 26 -3.6 1 -17.1 35 35 E 7 11 30.63 1037 10 16 0.00 0.00
6:58 pm 18:58 Cloudy 26 -3.6 2 -16.8 36 36 ENE 5 7 30.64 1038 10 16 0.00 0.00
7:58 pm 19:58 Cloudy 25 -3.7 3 -16.1 38 38 NE 6 9 30.63 1037 10 16 0.00 0.00
8:58 pm 20:58 Cloudy 25 -3.7 4 -15.7 39 39 ENE 6 9 30.65 1038 10 16 0.00 0.00
9:58 pm 21:58 Cloudy 25 -4 4 -15.4 41 41 ENE 6 9 30.63 1037 10 16 0.00 0.00
10:58 pm 22:58 Cloudy 24 -4.2 5 -15 43 43 E 3 6 30.63 1037 10 16 0.00 0.00
11:58 pm 23:58 Cloudy 24 -4.4 6 -14.3 46 46 E 5 7 30.63 1037 10 16 0.00 0.00

Powered by AerisWeather